Simultaneous Nadir Overpasses (SNOs) Predictions

Prediction of SNOs between GOES-17 and METOP-B Satellite Orbit:

Table of predicted SNOs for the next 14.0 days since TLE Epoch: 12/1/2024
Index Date Time (GOES-17) GOES-17 Lat,Lon METOP-B Lat,Lon Distance(km) Time Diff (sec)
1 12/02/2024 04:32:13 0.00,-104.67 -0.89,-108.65 453.19 80
2 12/03/2024 04:08:48 0.01,-104.66 0.24,-103.64 117.17 80
3 12/04/2024 16:27:30 -0.01,-104.70 0.75,-108.18 395.70 80
4 12/05/2024 16:09:24 -0.00,-104.70 -0.33,-103.16 175.30 80
5 12/07/2024 04:28:14 0.00,-104.65 -0.69,-107.73 351.06 80
6 12/08/2024 04:04:49 -0.00,-104.65 0.45,-102.73 219.69 80
7 12/09/2024 16:23:30 -0.00,-104.69 0.58,-107.26 293.18 80
8 12/10/2024 16:05:23 -0.00,-104.69 -0.52,-102.24 278.07 80
9 12/12/2024 04:24:14 0.00,-104.64 -0.47,-106.82 247.72 80
10 12/13/2024 04:00:47 -0.00,-104.63 0.63,-101.80 322.98 80
11 12/14/2024 16:19:29 0.00,-104.66 0.37,-106.34 190.51 80
